Centralia, IL

8:56 PM CST on January 23, 2018 (GMT -0600)
Centralia Municipal

Weather History for KENL - January, 2013

Change the Weather History Date:

Friday, January 11, 2013

  Actual Average (KSLO) Record (KSLO)
Temperature  
Mean Temperature 57 °F -  
Max Temperature 61 °F 34 °F 66 °F (2017)
Min Temperature 53 °F 17 °F -17 °F (1977)
Degree Days  
Heating Degree Days 8    
Growing Degree Days 7 (Base 50)    
Moisture  
Dew Point 50 °F    
Average Humidity 78    
Maximum Humidity 92    
Minimum Humidity 64    
Precipitation  
Precipitation 0.03 in - - ()
Sea Level Pressure  
Sea Level Pressure 29.86 in    
Wind  
Wind Speed 12 mph (South)    
Max Wind Speed 23 mph    
Max Gust Speed 26 mph    
Visibility 10 miles    
Events Rain    
Averages and records for this station are not official NWS values.
T = Trace of Precipitation, MM = Missing Value Source: NWS Daily Summary

Daily Weather History Graph

Daily Weather History Graph

Search for Another Location

Airport or City:

Trip Planner

Search our weather history database for the weather conditions in past years. The results will help you decide how hot, cold, wet, or windy it might be!

Date:

Astronomy

Jan. 11, 2013 Rise Set
Actual Time 7:13 AM CST 4:55 PM CST
Civil Twilight 6:44 AM CST 5:24 PM CST
Nautical Twilight 6:11 AM CST 5:57 PM CST
Astronomical Twilight 5:39 AM CST 6:29 PM CST
Moon 6:47 AM CST (1/11) 5:12 PM CST (1/11)
Length of Visible Light 10h 40m
Length of Day
9h 42m
Waning Crescent, 0% of the Moon is Illuminated
Jan 11
Waning Crescent
Jan 11
New
Jan 18
First Quarter
Jan 26
Full
Feb 3
Last Quarter

Hourly Weather History & Observations

Time (CST) Temp. Dew Point Humidity Pressure Visibility Wind Dir Wind Speed Gust Speed Precip Events Conditions
12:15 AM 61.0 °F 58.6 °F 92% 29.81 in 10.0 mi SSE 9.2 mph - N/A   Overcast
12:35 AM 60.8 °F 58.3 °F 91% 29.80 in 10.0 mi SSE 9.2 mph - N/A Rain Light Rain
12:55 AM 60.8 °F 58.3 °F 91% 29.81 in 7.0 mi SSW 9.2 mph - 0.02 in Rain Rain
1:15 AM 60.8 °F 57.6 °F 89% 29.81 in 10.0 mi South 10.4 mph - 0.01 in Rain Light Rain
1:35 AM 59.9 °F 57.2 °F 91% 29.82 in 10.0 mi South 11.5 mph - 0.01 in   Overcast
1:55 AM 60.3 °F 57.2 °F 90% 29.83 in 10.0 mi South 10.4 mph 16.1 mph 0.01 in   Mostly Cloudy
2:15 AM 59.4 °F 56.5 °F 90% 29.83 in 10.0 mi South 10.4 mph - N/A   Overcast
2:35 AM 59.2 °F 56.3 °F 90% 29.83 in 10.0 mi South 11.5 mph - N/A   Overcast
2:55 AM 58.3 °F 55.6 °F 91% 29.83 in 10.0 mi South 10.4 mph - N/A   Scattered Clouds
3:15 AM 57.6 °F 55.0 °F 91% 29.84 in 10.0 mi South 10.4 mph - N/A   Mostly Cloudy
3:35 AM 58.1 °F 55.4 °F 91% 29.84 in 10.0 mi SSW 10.4 mph - N/A   Overcast
3:55 AM 58.1 °F 54.1 °F 87% 29.84 in 10.0 mi SW 10.4 mph - N/A   Overcast
4:15 AM 57.2 °F 52.3 °F 84% 29.84 in 10.0 mi SSW 10.4 mph - N/A   Scattered Clouds
4:35 AM 56.5 °F 50.2 °F 79% 29.84 in 10.0 mi SSW 9.2 mph - N/A   Scattered Clouds
4:55 AM 54.9 °F 49.6 °F 83% 29.84 in 10.0 mi SW 9.2 mph - N/A   Scattered Clouds
5:15 AM 54.5 °F 49.1 °F 82% 29.85 in 10.0 mi SW 10.4 mph - N/A   Clear
5:35 AM 54.5 °F 48.7 °F 81% 29.85 in 10.0 mi SW 12.7 mph - N/A   Mostly Cloudy
5:55 AM 54.1 °F 48.4 °F 81% 29.86 in 10.0 mi SSW 8.1 mph - N/A   Overcast
6:15 AM 53.8 °F 48.7 °F 83% 29.87 in 10.0 mi SW 9.2 mph - N/A   Scattered Clouds
6:35 AM 53.1 °F 47.8 °F 82% 29.88 in 10.0 mi SW 10.4 mph - N/A   Clear
6:55 AM 53.2 °F 48.4 °F 84% 29.89 in 10.0 mi SSW 10.4 mph - N/A   Mostly Cloudy
7:15 AM 53.6 °F 48.4 °F 82% 29.89 in 10.0 mi SW 11.5 mph - N/A   Overcast
7:35 AM 53.8 °F 48.2 °F 81% 29.90 in 10.0 mi SSW 10.4 mph 18.4 mph N/A   Overcast
7:55 AM 53.8 °F 47.8 °F 80% 29.91 in 10.0 mi SSW 12.7 mph 17.3 mph N/A   Mostly Cloudy
8:15 AM 53.1 °F 46.9 °F 80% 29.91 in 10.0 mi SSW 9.2 mph - N/A   Scattered Clouds
8:35 AM 53.2 °F 47.8 °F 82% 29.92 in 10.0 mi SSW 10.4 mph - N/A   Clear
8:55 AM 53.8 °F 47.3 °F 79% 29.92 in 10.0 mi SSW 13.8 mph 19.6 mph N/A   Clear
9:15 AM 54.5 °F 47.1 °F 76% 29.92 in 10.0 mi SSW 15.0 mph 20.7 mph N/A   Clear
9:35 AM 55.0 °F 47.5 °F 76% 29.92 in 10.0 mi SSW 15.0 mph 18.4 mph N/A   Clear
9:55 AM 55.4 °F 47.7 °F 75% 29.92 in 10.0 mi SSW 11.5 mph 18.4 mph N/A   Clear
10:15 AM 55.9 °F 47.1 °F 72% 29.92 in 10.0 mi SSW 15.0 mph 18.4 mph N/A   Clear
10:35 AM 56.3 °F 48.0 °F 74% 29.92 in 10.0 mi SSW 12.7 mph - N/A   Clear
10:55 AM 56.5 °F 48.2 °F 74% 29.91 in 10.0 mi South 12.7 mph - N/A   Clear
11:15 AM 56.5 °F 48.6 °F 75% 29.90 in 10.0 mi South 11.5 mph - N/A   Clear
11:35 AM 58.5 °F 49.8 °F 73% 29.90 in 10.0 mi South 13.8 mph 17.3 mph N/A   Clear
11:55 AM 58.3 °F 50.2 °F 74% 29.88 in 10.0 mi South 16.1 mph 23.0 mph N/A   Clear
12:15 PM 58.6 °F 49.8 °F 72% 29.87 in 10.0 mi South 13.8 mph 19.6 mph N/A   Scattered Clouds
12:35 PM 58.8 °F 48.9 °F 70% 29.87 in 10.0 mi South 17.3 mph - N/A   Clear
12:55 PM 60.3 °F 48.4 °F 65% 29.86 in 10.0 mi South 23.0 mph 26.5 mph N/A   Clear
1:15 PM 59.9 °F 48.7 °F 67% 29.85 in 10.0 mi South 16.1 mph - N/A   Clear
1:55 PM 60.8 °F 50.4 °F 68% 29.86 in 10.0 mi South 11.5 mph 18.4 mph N/A   Unknown
2:15 PM 61.3 °F 49.1 °F 64% 29.85 in 10.0 mi South 17.3 mph 24.2 mph N/A   Clear
2:35 PM 61.0 °F 48.9 °F 64% 29.85 in 10.0 mi South 18.4 mph 26.5 mph N/A   Clear
2:55 PM 60.8 °F 48.6 °F 64% 29.85 in 10.0 mi South 18.4 mph 25.3 mph N/A   Clear
3:15 PM 60.4 °F 49.3 °F 67% 29.86 in 10.0 mi South 13.8 mph - N/A   Clear
3:35 PM 59.9 °F 49.5 °F 68% 29.86 in 10.0 mi SSE 16.1 mph 21.9 mph N/A   Clear
3:55 PM 58.6 °F 49.3 °F 71% 29.87 in 10.0 mi South 11.5 mph - N/A   Clear
4:15 PM 58.1 °F 48.9 °F 71% 29.87 in 10.0 mi South 12.7 mph - N/A   Clear
4:35 PM 57.0 °F 48.7 °F 74% 29.87 in 10.0 mi South 10.4 mph 19.6 mph N/A   Clear
4:55 PM 56.7 °F 48.6 °F 74% 29.86 in 10.0 mi SSE 11.5 mph - N/A   Clear
5:15 PM 55.8 °F 48.7 °F 77% 29.86 in 10.0 mi SSE 13.8 mph 18.4 mph N/A   Clear
5:35 PM 56.1 °F 48.6 °F 76% 29.86 in 10.0 mi South 12.7 mph - N/A   Clear
5:55 PM 55.4 °F 48.2 °F 77% 29.87 in 10.0 mi SSE 10.4 mph 16.1 mph N/A   Clear
6:15 PM 54.7 °F 48.4 °F 79% 29.87 in 10.0 mi SSE 10.4 mph - N/A   Clear
6:35 PM 54.1 °F 48.4 °F 81% 29.87 in 10.0 mi SSE 10.4 mph - N/A   Clear
6:55 PM 54.0 °F 48.2 °F 81% 29.86 in 10.0 mi SSE 12.7 mph - N/A   Clear
7:15 PM 54.1 °F 48.2 °F 80% 29.87 in 10.0 mi South 11.5 mph - N/A   Clear
7:35 PM 54.7 °F 48.2 °F 79% 29.87 in 10.0 mi South 10.4 mph - N/A   Clear
7:55 PM 54.7 °F 47.8 °F 78% 29.87 in 10.0 mi South 11.5 mph - N/A   Clear
8:15 PM 54.5 °F 47.7 °F 78% 29.87 in 10.0 mi South 10.4 mph 16.1 mph N/A   Clear
8:35 PM 53.8 °F 47.3 °F 79% 29.87 in 10.0 mi South 11.5 mph - N/A   Clear
8:55 PM 54.5 °F 47.3 °F 77% 29.86 in 10.0 mi South 13.8 mph - N/A   Clear
9:15 PM 54.5 °F 47.3 °F 77% 29.87 in 10.0 mi South 12.7 mph 18.4 mph N/A   Clear
9:35 PM 54.5 °F 47.3 °F 77% 29.86 in 10.0 mi South 11.5 mph - N/A   Clear
9:55 PM 53.8 °F 46.9 °F 78% 29.85 in 10.0 mi South 13.8 mph 19.6 mph N/A   Clear
10:15 PM 54.5 °F 47.3 °F 77% 29.86 in 10.0 mi South 12.7 mph 19.6 mph N/A   Clear
10:35 PM 54.7 °F 46.9 °F 75% 29.85 in 10.0 mi South 15.0 mph - N/A   Clear
10:55 PM 55.0 °F 46.9 °F 74% 29.85 in 10.0 mi South 16.1 mph 23.0 mph N/A   Clear
11:15 PM 55.4 °F 46.9 °F 73% 29.85 in 10.0 mi South 15.0 mph - N/A   Clear
11:35 PM 55.2 °F 46.9 °F 74% 29.86 in 10.0 mi SSW 16.1 mph 21.9 mph N/A   Clear
11:55 PM 54.7 °F 46.8 °F 75% 29.86 in 10.0 mi South 13.8 mph - N/A   Clear